HULIANWANG DIGUI-70 (65230 NORAD) Tracking and Keplerian Element Data

This shows tracking and keplerian element data for the satellite.

Feedback or suggestion? Click here.




ElementValue
Catalog65230
NameHULIANWANG DIGUI-70
Epoch Orbit1661
Epoch Day354.14203205
Epoch Year2025
RAAN73.9162
Inclination86.4918
Eccentricity0.0001464
Argument of Perigee113.5514
Mean Anonmoly246.5774
Mean Motion13.24413087
Decay Rate4.7E-07
L11 65230U 25178C 25354.14203205 .00000047 00000+0 75538-4 0 9997
L22 65230 86.4918 73.9162 0001464 113.5514 246.5774 13.24413087 16619



Live tracking and technical data element details for HULIANWANG DIGUI-70 (NORAD 65230). HULIANWANG DIGUI-70 can be tracked NOW for your location showing map with azimuth and elevation plus other details from your city location.







IsCatalogInMostPopularTable: catalog: 65230, numindb: 7
Update: records affected: 1



GetName: 65230 HULIANWANG DIGUI-70

Hit Count: updated at: Tue, 21 Apr 2026 19:20:48 GMT